Regional Weather Roundup
Issued by NWS

Home | Current Version | Previous Version | Graphics & Text | Print | Product List | Glossary On
Versions: 1 2 3 4 5 6 7 8 9 10 11 12 13 14 15 16 17 18 19 20 21 22 23 24 25 26 27 28 29 30 31 32 33 34 35 36 37 38 39 40 41 42 43 44 45 46 47 48 49 50
000
ASUS43 KFSD 231210
RWRSD

WEATHER ROUNDUP FOR SOUTH DAKOTA
NATIONAL WEATHER SERVICE SIOUX FALLS SD
600 AM CST THU FEB 23 2017

NOTE: "FAIR" INDICATES FEW OR NO CLOUDS BELOW 12,000 FEET WITH NO
SIGNIFICANT WEATHER AND/OR OBSTRUCTIONS TO VISIBILITY.


SDZ001>005-009-010-012>017-231300-
NORTHWEST AND NORTH CENTRAL SOUTH DAKOTA

CITY           SKY/WX    TMP DP  RH WIND       PRES   REMARKS
BUFFALO          N/A     28  26  92 NE13      29.84F WCI  17
FAITH            N/A     27  26  96 E13       29.92S WCI  16
MOBRIDGE       CLOUDY    27  23  85 N7        29.94S WCI  19
$$

SDZ012>016-024>037-041>051-057-063-072>074-231300-
SOUTHWEST AND SOUTH CENTRAL SOUTH DAKOTA

CITY           SKY/WX    TMP DP  RH WIND       PRES   REMARKS
RAPID CTY ARPT CLOUDY    28  26  92 NE14      29.86S FOG     WCI  17
PIERRE         PTCLDY    27  23  85 N8        29.93F WCI  19
CUSTER         LGT SNOW  22  19  89 NE14G20   29.72F FOG     WCI   9
ELLSWORTH AFB  FRZ DRZL  28  28 100 NE10      29.85  FOG     WCI  19
PHILIP         CLOUDY    28  24  85 NE14      29.90F WCI  17
PINE RIDGE     LGT SNOW  28  27  96 NE14      29.81R FOG     WCI  17
SPEARFISH      CLOUDY    27  27 100 E10       29.84F FOG     WCI  17
WINNER         CLOUDY    30  24  78 NE15      29.88F WCI  19
$$

SDZ004>011-016>023-039-040-231300-
NORTHEAST SOUTH DAKOTA

CITY           SKY/WX    TMP DP  RH WIND       PRES   REMARKS
ABERDEEN       PTCLDY    26  22  84 N10       29.97F WCI  16
WATERTOWN      PTCLDY    26  23  88 NE13      29.89F WCI  15
BROOKINGS      CLOUDY    29  25  85 NE13      29.88S WCI  19
SISSETON         N/A     27  25  92 N14       29.95F WCI  16
$$

SDZ017-020-022-023-036>040-048>070-231300-
SOUTHEAST SOUTH DAKOTA

CITY           SKY/WX    TMP DP  RH WIND       PRES   REMARKS
SIOUX FALLS    CLOUDY    32  28  85 NE15G23   29.87R WCI  22
HURON          CLOUDY    28  25  88 N14       29.92S WCI  17
CHAMBERLAIN    CLOUDY    31  27  86 N10       29.91S WCI  22
MITCHELL       CLOUDY    30  27  88 N14       29.91R WCI  19
YANKTON        CLOUDY    32  27  80 NE10      29.86F WCI  24
$$

ABBREVIATIONS USED IN REMARKS
   TC - TEMPERATURE IN CELSIUS
  WCI - WIND CHILL INDEX
   HX - HEAT INDEX
  VSB - VISIBILITY





USA.gov is the U.S. government's official web portal to all federal, state and local government web resources and services.